Погода в Рыбнице

Россия / Республика Коми     64°33′24″N   55°28′52″E
темп.,
°C
ветер,
м/с
пор.,
м/с
влажн.,
%
обл.,
%
осадки,
мм/ч
давл.,
гПа
погр.,
м
2 августа, пн
пн200:00+11зюз119618 0.0 100410
03:00+10зсз11965 0.0 100510
06:00+14всв00855 0.0 1005172
09:00+19ююз236041 0.0 10051060
12:00+21зюз345791 0.4 10051338
15:00+22зюз3459100 1.6 10051000
18:00+19зюз1273100 0.6 100671
21:00+14зюз119365 0.9 100710
3 августа, вт
вт300:00+13ю22960 0.0 100817
03:00+12ююз239811 0.0 100953
06:00+16ююз238819 0.0 1010265
09:00+21ю235840 0.0 10101173
12:00+24ю344542 0.0 10091926
15:00+25ю454151 0.0 10081872
18:00+23ююв3753100 0.0 1008361
21:00+18юв3117451 0.0 1007253
4 августа, ср
ср400:00+17ююв31375100 0.0 1007374
03:00+16ююв31090100 0.2 1007310
06:00+19ю3683100 0.0 1007380
09:00+23ююз346842 0.0 1007830
12:00+22юз347968 1.5 1007805
15:00+24ю346391 2.4 10071094
18:00+22зюз237260 0.9 1007106
21:00+16зсз2480100 0.9 100855
5 августа, чт
чт500:00+15зсз2677100 0.0 1009115
03:00+15зсз31074100 0.0 1010358
06:00+17сз496676 0.0 1011676
09:00+19сз4547100 0.0 10121058
12:00+20сз4440100 0.0 10131828
15:00+20сз5537100 0.0 10141827
18:00+16ссз57519 0.0 10161046
21:00+10ссз2873100 0.0 1017254
6 августа, пт
пт600:00+8сз2784100 0.0 1017176
03:00+11ссз4877100 0.0 1017598
06:00+12ссз586796 0.0 1018872
09:00+13ссз5756100 0.0 10171443
12:00+13ссз4762100 0.0 10181201
15:00+13с4761100 0.1 10181165
18:00+12с4867100 0.0 10181063
21:00+11с4973100 0.0 1018841